Regional Weather Roundup
Issued by NWS Upton, NY

Current Version | Previous Version | Graphics & Text | Print | Product List | Glossary Off
Versions: 1 2 3 4 5 6 7 8 9 10 11 12 13 14 15 16 17 18 19 20 21 22 23 24 25 26 27 28 29 30 31 32 33 34 35 36 37 38 39 40 41 42 43 44 45 46 47 48 49 50

000
ASUS41 KOKX 251109
RWROKX

REGIONAL WEATHER ROUNDUP
NATIONAL WEATHER SERVICE NEW YORK NY
700 AM EDT FRI JUL 25 2014

NOTE: "FAIR" INDICATES FEW OR NO CLOUDS BELOW 12,000 FEET WITH NO
SIGNIFICANT WEATHER AND/OR OBSTRUCTIONS TO VISIBILITY.

NYZ071-072-176-178-NJZ106-104-251200-
NEW YORK CITY METRO AREA


CITY           SKY/WX    TMP DP  RH WIND       PRES   REMARKS
CENTRAL PARK   SUNNY     67  53  61 VRB6      30.01R
LAGUARDIA APRT MOSUNNY   67  54  63 N8        29.98R
KENNEDY INTL   MOSUNNY   68  54  60 N8        29.98R
NEWARK/LIBERTY PTSUNNY   67  54  63 N8        29.98R
BRNX BOT. GARD   N/A     66  54  63 CALM      29.99R
TETERBORO      MOSUNNY   68  53  58 NE3       29.98R
$$

NYZ177-179-078>081-251200-
LONG ISLAND NEW YORK

CITY           SKY/WX    TMP DP  RH WIND       PRES   REMARKS
FARMINGDALE    SUNNY     66  56  70 N10       29.97R
ISLIP          MOSUNNY   68  57  68 N8        29.96R
SHIRLEY        SUNNY     66  59  78 N6        29.97R
WESTHAMPTON    SUNNY     66  59  78 N7        29.98R
MONTAUK POINT    N/A     67  61  81 N6        29.98R
$$

NYZ052-065-067-251200-
HUDSON VALLEY

CITY           SKY/WX    TMP DP  RH WIND       PRES   REMARKS
WHITE PLAINS   MOSUNNY   63  53  70 N9        29.98R
NEWBURGH       SUNNY     57  55  94 CALM      30.03R
MONTGOMERY     SUNNY     55  52  89 CALM      30.02R
POUGHKEEPSIE   SUNNY     58  55  90 CALM      30.01R
ALBANY         SUNNY     57  51  80 CALM      30.02R
$$

NJZ001-105-106-008-010-013-015-019>022-104-251200-
NEW JERSEY

CITY           SKY/WX    TMP DP  RH WIND       PRES   REMARKS
NEWARK/LIBERTY PTSUNNY   67  54  63 N8        29.98R
TETERBORO      MOSUNNY   68  53  58 NE3       29.98R
CALDWELL       SUNNY     62  53  72 CALM      30.01R
MORRISTOWN     MOSUNNY   57  55  94 CALM      30.00R
SOMERVILLE     CLOUDY    60  55  83 CALM      29.99R
LINDEN         FAIR      68  54  60 N6        30.01R
SUSSEX         SUNNY     56  53  90 CALM      30.02R
ANDOVER          N/A     54  54 100 CALM      30.03R
TRENTON        SUNNY     61  52  72 NW6       30.00R
MILLVILLE      SUNNY     63  54  72 NW5       30.00R
ATLANTIC CITY  SUNNY     62  56  80 NW6       29.98R
WRIGHTSTOWN    SUNNY     62  55  76 NW6       29.98R
TOMS RIVER     SUNNY     61  54  77 N3        29.98R
BELMAR         SUNNY     63  54  72 NW5       29.98R
$$

PAZ047>061-062-071-251200-
EASTERN PENNSYLVANIA

CITY           SKY/WX    TMP DP  RH WIND       PRES   REMARKS
PHILADELPHIA   MOSUNNY   64  51  62 N10       30.01R
ALLENTOWN      SUNNY     56  52  86 CALM      30.03R
SCRANTON       SUNNY     52  48  86 CALM      30.07R
$$

CTZ002-004>006-009-010-012-RIZ004-006-007-MAZ004-011-015-251200-
SOUTHERN NEW ENGLAND
 IN CT

CITY           SKY/WX    TMP DP  RH WIND       PRES   REMARKS
BRADLEY INTL   MOSUNNY   61  55  81 CALM      29.97S
HARTFORD       SUNNY     63  54  72 N3        29.98R
DANBURY        SUNNY     58  53  84 SW3       30.01R
WTRBRY/OXFORD  SUNNY     59  52  77 CALM      30.01R
BRIDGEPORT     SUNNY     65  56  72 N6        29.97R
MERIDEN        SUNNY     59  56  89 CALM      29.99R
NEW HAVEN      SUNNY     66  56  70 N10       29.97R
CHESTER        FAIR      63  55  77 N6        29.99R
GROTON         SUNNY     63  56  78 N9        29.96R
WILLIMANTIC    SUNNY     59  55  87 CALM      29.98R

 IN RI

CITY           SKY/WX    TMP DP  RH WIND       PRES   REMARKS
PROVIDENCE     MOSUNNY   64  52  64 N9        29.96R
BLOCK ISLAND   SUNNY     66  57  72 N7        29.96R
WESTERLY       SUNNY     66  54  65 N9        29.97R

 IN MA

CITY           SKY/WX    TMP DP  RH WIND       PRES   REMARKS
BOSTON         MOSUNNY   63  52  67 NW7       29.96R
WORCESTER      SUNNY     60  49  66 N9        29.98R
WESTFIELD      SUNNY     57  54  89 CALM      29.98S
PROVINCETOWN   PTSUNNY   63  61  94 CALM      29.94R
NANTUCKET      CLOUDY    66  60  81 N9        29.93R
$$

ANZ330-335-338-340-345-350-353-355-251200-
COASTAL MARINE OBSERVATIONS


STATION/POSITION TIME  SKY/WX   TEMP    WIND        PRES    VSBY  WAVE
                                AIR SEA DIR/SP/G                  HT/PER
                 (UTC)          (F)     (DEG/KT/KT) (MB)    (MI)  (FT/S)
NY HARB ENTRANCE NOT AVBL
4S FIRE IS       NOT AVBL
23SW MTP         1100            68 71              1013.8          2/ 8
HUDSON CANYON    1100            72 74   30/ 12/ 14 1013.3          2/ 8
EXECUTION ROCKS  1100            67 71   10/  8/ 12   N/A
WESTERN LI SOUND 1100            66      20/  6/  8   N/A           1
CENTRAL LI SOUND 1000            67 72   10/ 12/ 14   N/A           1/ 3
EASTERN LI SOUND 1000            68 67  360/ 12/ 16   N/A
ROBBINS REEF     1100            67     350/ 10/ 12   N/A
$$


>>>>>>>>>>>>>>>>>>>>>>>>>>>> KEY <<<<<<<<<<<<<<<<<<<<<<<<<<<
>                                                          <
>     SKY/WX - SKY CONDITION/PRESENT WEATHER               <
>     TMP    - TEMPERATURE IN FAHRENHEIT                   <
>     DP     - DEWPOINT IN FAHRENHEIT                      <
>     RH     - RELATIVE HUMIDITY IN PERCENT                <
>     WIND   - DIRECTION AND SPEED IN MPH                  <
>     PRES   - MEAN SEA LEVEL PRESSURE IN INCHES OF HG     <
>     WCI    - WIND CHILL INDEX                            <
>     VSB    - VISIBILITY IN MILES                         <
>     HX     - HEAT INDEX                                  <
>     TC     - TEMPERATURE IN CELSIUS                      <
>     VRB    - VARIABLE WIND DIRECTION                     <
>                                                          <
>>>>>>>>>>>>>>>>>>>>>>>>>>>> KEY <<<<<<<<<<<<<<<<<<<<<<<<<<<




USA.gov is the U.S. government's official web portal to all federal, state and local government web resources and services.